[[{"header":{"parameterUnit":"m.s-1","parameterCategory":1,"la1":30.2991,"la2":30.254,"lo1":-89.0895,"lo2":-89.0444,"dy":0.0017,"dx":0.0017,"nx":28,"ny":28,"refTime":"2023-10-27T21:00:00:Z","depth":0,"parameterNumber":2,"parameterNumberName":"U-component_of_WINDS"},"data":[0,0,0,0,0,0,0,0,0,0,0,0,0,0,0,0,0,0,0,0,0,0,0,0,0,0,0,0,0,0,0,0,0,0,0,0,0,0,0,0,0,0,0,0,0,0,0,0,0,0,0,0,0,0,0,0,0,0,-3.0244,-3.0244,0,-3.0227,-3.0227,-3.0227,-3.0119,-3.0116,-3.0113,-3.0111,-3.0094,-3.0096,-3.0098,0,0,0,0,0,0,0,0,0,0,0,0,0,-3.0184,-3.0186,-3.0244,-3.0244,-3.0244,-3.0227,-3.0227,-3.0227,-3.0119,-3.0116,-3.0113,-3.011,-3.0094,-3.0096,-3.0099,0,0,0,0,0,0,0,0,0,0,0,0,0,-3.0193,-3.0187,-3.0245,-3.0188,-3.0183,-3.0227,-3.0227,-3.0227,-3.012,-3.0116,-3.0112,-3.0108,-3.0093,-3.0096,-3.0099,-3.0196,0,0,-3.0108,-3.0109,0,0,0,0,0,0,0,0,-3.0193,-3.0196,-3.0197,-3.0192,-3.0186,-3.0171,-3.02,-3.0217,-3.0121,-3.0144,-3.0111,-3.0106,-3.0123,-3.0123,-3.0129,-3.0196,-3.0195,-3.0108,-3.011,-3.0111,-3.0112,0,0,0,0,0,0,0,-3.0193,-3.0196,-3.0238,-3.0197,-3.0191,-3.0164,-3.0161,-3.0203,-3.0156,-3.0142,-3.0134,-3.0133,-3.012,-3.0126,-3.0128,-3.0195,-3.0108,-3.0111,-3.0113,-3.0114,-3.034,-3.0344,0,0,0,0,0,0,-3.02,-3.0196,-3.0238,-3.0237,-3.018,-3.0168,-3.0165,-3.018,-3.0155,-3.0147,-3.0136,-3.0128,-3.0123,-3.0124,-3.0127,-3.0238,-3.0111,-3.0114,-3.0116,-3.0335,-3.0341,-3.0345,0,0,0,0,0,0,-3.0199,-3.0204,-3.0239,-3.0214,-3.0217,-3.0174,-3.0191,-3.0182,-3.0188,-3.0151,-3.0142,-3.0152,-3.012,-3.0123,-3.018,-3.0236,-3.0116,-3.0118,-3.0331,-3.0337,-3.0343,-3.0463,0,0,0,0,0,0,-3.0198,-3.0205,-3.0241,-3.0216,-3.0219,-3.0292,-3.0195,-3.0184,-3.0194,-3.0183,-3.0163,-3.0156,-3.0117,-3.0176,-3.0183,-3.0238,-3.0121,-3.0325,-3.0333,-3.0341,-3.0453,-3.0472,-3.0488,0,0,0,0,0,-3.0196,-3.0276,-3.0244,-3.0249,-3.0263,-3.0296,-3.0297,-3.025,-3.0199,-3.0235,-3.0211,-3.0157,-3.0229,-3.0182,-3.0189,-3.0247,-3.0321,-3.0331,-3.034,-3.0445,-3.0468,-3.0488,0,0,0,0,0,0,-3.0309,-3.0272,-3.0235,-3.031,-3.0307,-3.0277,-3.0321,-3.0276,-3.0287,-3.0277,-3.0218,-3.0215,-3.0281,-3.0269,-3.0218,-3.0339,-3.0266,-3.0277,-3.0344,-3.0365,-3.0382,-3.0383,-3.0123,0,0,0,0,0,-3.0343,-3.0372,-3.0338,-3.0407,-3.0407,-3.0365,-3.0377,-3.0342,-3.0336,-3.0334,-3.0314,-3.0312,-3.0333,-3.0349,-3.0367,-3.0452,-3.0446,-3.0495,-3.0512,-3.0527,-3.0537,-3.058,-3.0601,-3.0376,-3.0376,-3.0376,0,0,-3.0412,-3.0396,-3.0418,-3.0429,-3.0422,-3.0454,-3.0364,-3.0402,-3.0424,-3.034,-3.0392,-3.0378,-3.0371,-3.0442,-3.0472,-3.0435,-3.0598,-3.0539,-3.0551,-3.0552,-3.0591,-3.0613,-3.0632,-3.0382,-3.0381,-3.038,0,0,-3.0555,-3.0546,-3.0601,-3.0597,-3.0588,-3.0559,-3.0573,-3.0551,-3.0538,-3.0589,-3.0526,-3.0553,-3.0592,-3.0589,-3.0593,-3.0736,-3.0686,-3.0744,-3.0834,-3.0877,-3.0894,-3.091,-3.0959,-3.0978,-3.0754,-3.0754,-3.0754,0,-3.0642,-3.0687,-3.0636,-3.0677,-3.0684,-3.0609,-3.0665,-3.0663,-3.0661,-3.0667,-3.0626,-3.0673,-3.0663,-3.0732,-3.0766,-3.0773,-3.0786,-3.0744,-3.0896,-3.0911,-3.0924,-3.0971,-3.099,-3.0761,-3.076,-3.076,-3.0759,0,-3.0795,-3.0827,-3.0873,-3.0872,-3.0884,-3.0933,-3.0889,-3.0908,-3.0872,-3.0848,-3.0901,-3.0887,-3.09,-3.0915,-3.088,-3.0979,-3.0956,-3.0906,-3.0831,-3.0954,-3.0996,-3.1014,-3.0771,-3.0769,-3.0767,-3.0765,0,0,-3.1006,-3.0977,-3.0995,-3.0993,-3.0978,-3.1002,-3.1048,-3.106,-3.1077,-3.1079,-3.1115,-3.115,-3.1104,-3.1108,-3.1073,-3.1111,-3.1223,-3.1056,-3.1055,-3.1086,-3.133,-3.1366,-3.1388,-3.1191,-3.1194,-3.1197,-3.133,0,-3.1141,-3.1216,-3.1172,-3.1254,-3.1282,-3.1212,-3.1252,-3.1247,-3.1226,-3.1248,-3.1225,-3.125,-3.1189,-3.1191,-3.1225,-3.1202,-3.1271,-3.1192,-3.1223,-3.1225,-3.1225,-3.141,-3.1448,-3.1574,-3.1347,-3.1349,-3.1351,0,-3.1309,-3.1317,-3.1401,-3.138,-3.139,-3.1427,-3.1435,-3.1457,-3.145,-3.1432,-3.1438,-3.1393,-3.1436,-3.1364,-3.1423,-3.137,-3.1381,-3.1372,-3.1375,-3.1375,-3.1294,-3.1413,-3.1614,-3.1632,-3.1378,-3.1375,-3.1374,0,-3.1452,-3.1485,-3.1539,-3.154,-3.1518,-3.1544,-3.1537,-3.1526,-3.1537,-3.1544,-3.155,-3.1564,-3.1571,-3.1582,-3.1542,-3.1493,-3.1606,-3.153,-3.1591,-3.1593,-3.1616,-3.1615,-3.182,-3.1627,-3.1627,-3.1626,-3.1626,0,-3.1606,-3.166,-3.1603,-3.1636,-3.1694,-3.1644,-3.1703,-3.1688,-3.1679,-3.1708,-3.165,-3.1678,-3.1625,-3.1648,-3.1618,-3.167,-3.1674,-3.1661,-3.1652,-3.1665,-3.1666,-3.1669,-3.1659,-3.1631,-3.163,-3.1629,-3.1629,0,-3.1776,-3.174,-3.1794,-3.1768,-3.1763,-3.1807,-3.1785,-3.1815,-3.1791,-3.1829,-3.1835,-3.1797,-3.1821,-3.1783,-3.1804,-3.1783,-3.1855,-3.1834,-3.1857,-3.185,-3.1913,-3.1907,-3.2125,-3.215,-3.1944,-3.1946,-3.1947,0,-3.1875,-3.1915,-3.1894,-3.1909,-3.1904,-3.1929,-3.194,-3.1892,-3.1905,-3.1901,-3.1932,-3.1951,-3.1964,-3.2007,-3.1981,-3.1997,-3.1974,-3.2049,-3.1976,-3.1987,-3.1973,-3.197,-3.1973,-3.2064,-3.2066,-3.2068,-3.207,0,-3.2056,-3.2036,-3.2052,-3.2064,-3.2078,-3.2084,-3.2087,-3.2103,-3.2052,-3.2071,-3.2094,-3.2105,-3.2125,-3.2145,-3.2155,-3.2146,-3.21,-3.2094,-3.2108,-3.2121,-3.2132,-3.2125,-3.1896,-3.2088,-3.2087,-3.2085,-3.2084,-3.2083,-3.2191,-3.2223,-3.2213,-3.2234,-3.223,-3.2234,-3.226,-3.224,-3.2259,-3.2271,-3.2243,-3.2274,-3.2267,-3.2274,-3.2271,-3.2295,-3.2262,-3.2284,-3.2289,-3.2294,-3.2303,-3.2131,-3.2297,-3.2296,-3.2296,-3.2295,-3.2295,0,-3.2366,-3.2357,-3.2377,-3.2381,-3.2398,-3.2353,-3.2354,-3.2371,-3.2398,-3.2396,-3.241,-3.2437,-3.2457,-3.2434,-3.2449,-3.2472,-3.2451,-3.2478,-3.2474,-3.2473,-3.2333,-3.2318,-3.2494,-3.2494,-3.2494,-3.2494,-3.2494,-3.2494,-3.2459,-3.251,-3.2489,-3.2538,-3.2528,-3.2557,-3.2561,-3.2564,-3.2562,-3.2595,-3.2611,-3.2595,-3.2584,-3.2598,-3.2614,-3.2607,-3.2614,-3.2648,-3.2633,-3.2502,-3.2483,-3.2464,-3.2449,-3.2651,-3.2651,-3.2771,-3.2772,-3.2773]},{"header":{"parameterUnit":"m.s-1","parameterCategory":1,"la1":30.2991,"la2":30.254,"lo1":-89.0895,"lo2":-89.0444,"dy":0.0017,"dx":0.0017,"nx":28,"ny":28,"refTime":"2023-10-27T21:00:00:Z","depth":0,"parameterNumber":3,"parameterNumberName":"V-component_of_WINDS"},"data":[0,0,0,0,0,0,0,0,0,0,0,0,0,0,0,0,0,0,0,0,0,0,0,0,0,0,0,0,0,0,0,0,0,0,0,0,0,0,0,0,0,0,0,0,0,0,0,0,0,0,0,0,0,0,0,0,0,0,0.472,0.472,0,0.4718,0.4718,0.4718,0.465,0.4648,0.4646,0.4645,0.4646,0.4647,0.4649,0,0,0,0,0,0,0,0,0,0,0,0,0,0.4668,0.467,0.472,0.472,0.4719,0.4718,0.4718,0.4718,0.465,0.4648,0.4646,0.4644,0.4645,0.4647,0.4649,0,0,0,0,0,0,0,0,0,0,0,0,0,0.4681,0.467,0.472,0.4685,0.4682,0.4718,0.4718,0.4718,0.4651,0.4648,0.4645,0.4643,0.4645,0.4647,0.4649,0.4718,0,0,0.4657,0.4658,0,0,0,0,0,0,0,0,0.4681,0.4683,0.469,0.4688,0.4684,0.4681,0.47,0.4718,0.4651,0.4663,0.4645,0.4642,0.466,0.4661,0.4667,0.4718,0.4718,0.4657,0.4659,0.466,0.4661,0,0,0,0,0,0,0,0.468,0.4683,0.4719,0.4691,0.4687,0.4672,0.4671,0.4703,0.4676,0.4662,0.4657,0.4657,0.4658,0.4664,0.4666,0.4718,0.4657,0.466,0.4661,0.4662,0.483,0.4833,0,0,0,0,0,0,0.4683,0.4683,0.4719,0.4719,0.4676,0.4675,0.4673,0.4685,0.4676,0.4672,0.4659,0.4654,0.4661,0.4663,0.4666,0.4749,0.466,0.4662,0.4664,0.4827,0.4831,0.4834,0,0,0,0,0,0,0.4682,0.4687,0.4719,0.4699,0.4702,0.4678,0.4692,0.4686,0.4693,0.4674,0.4669,0.4671,0.4659,0.4662,0.4706,0.4748,0.4663,0.4666,0.4824,0.4828,0.4833,0.4913,0,0,0,0,0,0,0.4681,0.4687,0.4712,0.47,0.4704,0.4759,0.4694,0.4688,0.4697,0.469,0.4684,0.468,0.4657,0.4703,0.4709,0.475,0.4668,0.482,0.4826,0.4831,0.4907,0.492,0.4931,0,0,0,0,0,0.4679,0.4734,0.4713,0.4718,0.4734,0.4761,0.4763,0.4735,0.4701,0.4726,0.4715,0.468,0.4742,0.4708,0.4714,0.4756,0.4817,0.4824,0.4831,0.4901,0.4917,0.4931,0,0,0,0,0,0,0.4752,0.4732,0.4709,0.4761,0.4763,0.4749,0.4781,0.4752,0.4765,0.4758,0.4723,0.4722,0.4773,0.4768,0.4731,0.4824,0.4774,0.4782,0.4825,0.484,0.4852,0.4853,0.467,0,0,0,0,0,0.4774,0.4796,0.4778,0.4826,0.4829,0.4805,0.4815,0.4794,0.4795,0.4796,0.4787,0.479,0.4811,0.4825,0.4842,0.4905,0.4905,0.4937,0.4949,0.4959,0.4968,0.5004,0.502,0.4856,0.4856,0.4856,0,0,0.4819,0.4812,0.4828,0.4841,0.484,0.4866,0.4806,0.4835,0.4855,0.48,0.4842,0.4836,0.4838,0.4893,0.4916,0.4891,0.5013,0.4968,0.4976,0.4979,0.5013,0.5028,0.5042,0.486,0.486,0.4859,0,0,0.4917,0.4912,0.4953,0.4954,0.4953,0.4937,0.4947,0.4938,0.4932,0.4973,0.4934,0.4957,0.4991,0.4995,0.5002,0.5103,0.5073,0.511,0.5174,0.521,0.5223,0.5234,0.5274,0.5288,0.5117,0.5118,0.5118,0,0.4974,0.5011,0.4978,0.5011,0.5019,0.497,0.5013,0.5016,0.5021,0.5029,0.4999,0.5044,0.5041,0.5098,0.5123,0.5129,0.5142,0.5111,0.5223,0.5234,0.5245,0.5282,0.5296,0.5122,0.5122,0.5121,0.5121,0,0.5083,0.5109,0.5142,0.5149,0.5161,0.5198,0.5174,0.519,0.5167,0.5155,0.52,0.5195,0.5212,0.5223,0.5202,0.5278,0.5263,0.5229,0.5178,0.5265,0.53,0.5314,0.5129,0.5127,0.5126,0.5125,0,0,0.5226,0.5215,0.5228,0.5232,0.5229,0.5249,0.5285,0.5302,0.5318,0.5323,0.5355,0.5387,0.5356,0.5364,0.5342,0.5373,0.5458,0.5336,0.5336,0.5362,0.5546,0.5574,0.5591,0.5437,0.544,0.5442,0.5547,0,0.5323,0.5384,0.5357,0.5421,0.5447,0.5402,0.5434,0.5437,0.5427,0.5448,0.5437,0.5462,0.5418,0.5423,0.5451,0.5442,0.5495,0.5433,0.547,0.5471,0.5473,0.5608,0.5637,0.5737,0.556,0.5562,0.5564,0,0.5444,0.5455,0.5522,0.5517,0.5526,0.5556,0.557,0.559,0.5593,0.5584,0.5594,0.5566,0.5604,0.5551,0.5605,0.5564,0.5577,0.5575,0.5578,0.5582,0.5525,0.562,0.5767,0.5784,0.5584,0.5583,0.5581,0,0.5546,0.5577,0.5622,0.5626,0.562,0.5643,0.5641,0.5641,0.5654,0.5667,0.5675,0.5692,0.5702,0.5717,0.5696,0.5659,0.5754,0.5699,0.575,0.5751,0.5774,0.5773,0.5929,0.5778,0.5777,0.5777,0.5777,0,0.5658,0.5702,0.5668,0.5697,0.5745,0.5714,0.5764,0.5758,0.5759,0.5787,0.5748,0.5776,0.5744,0.5769,0.5753,0.5802,0.5806,0.5801,0.5797,0.5806,0.5808,0.5816,0.581,0.5781,0.578,0.5779,0.5779,0,0.5781,0.5759,0.5807,0.5797,0.5796,0.5833,0.5825,0.5852,0.584,0.5876,0.5883,0.5864,0.5892,0.5871,0.5898,0.5887,0.5953,0.5937,0.5952,0.5949,0.6002,0.5999,0.6172,0.6194,0.6026,0.6027,0.6029,0,0.5855,0.5888,0.5882,0.5898,0.5899,0.5924,0.5937,0.5908,0.5924,0.5931,0.5958,0.5982,0.6,0.6047,0.6037,0.6059,0.6046,0.6105,0.6049,0.6058,0.6051,0.605,0.6055,0.6117,0.6119,0.612,0.6122,0,0.5991,0.5979,0.5998,0.6015,0.6032,0.6044,0.6053,0.6068,0.6039,0.6059,0.6086,0.6101,0.6129,0.6155,0.6173,0.6174,0.6145,0.6139,0.6153,0.6164,0.6173,0.6173,0.5986,0.6136,0.6134,0.6133,0.6133,0.6132,0.6094,0.6122,0.6123,0.6147,0.6151,0.6161,0.6186,0.6178,0.62,0.6221,0.6202,0.6237,0.6242,0.6263,0.6267,0.6295,0.6271,0.629,0.6295,0.6301,0.6311,0.6166,0.6298,0.6298,0.6297,0.6297,0.6296,0,0.623,0.6229,0.6251,0.6265,0.6285,0.6254,0.6263,0.6282,0.6312,0.6319,0.6338,0.6371,0.6397,0.6389,0.6413,0.6437,0.6424,0.6444,0.6444,0.6445,0.6329,0.6316,0.6454,0.6454,0.6454,0.6454,0.6454,0.6454,0.6304,0.6351,0.634,0.639,0.6389,0.6422,0.643,0.644,0.6445,0.6485,0.6505,0.65,0.6502,0.6525,0.6548,0.6546,0.6558,0.6583,0.6576,0.6468,0.6453,0.6438,0.6426,0.6585,0.6585,0.6691,0.6692,0.6692]}]]